Location: Boncourt
(49.6160°N, 3.9448°E)
Time: 12:19:27
(UTC+00:00)

Lacrosse 4 Rocket - Pass Details

Date: 09 February 2023
Orbit: 536 x 608 km, 68.0° (Epoch: 24 March)

Event Time Altitude Azimuth Distance (km) Brightness Sun altitude
Rises 19:10:52 0° 329° (NNW) 2,852 5.5 -22.7°
Reaches altitude 10° 19:13:14 10° 336° (NNW) 1,933 4.4 -23.1°
Enters shadow 19:16:10 34° 6° (N) 971 2.5 -23.6°
